FW4468 Weather Reports


time (UTC)temp
C
wind
direction
speed
KPH
gust
KPH
rain 1hr
cm
rain 24hr
cm
rain mn
cm
humidity
%
barometer
mb
20260507053008 12 142 0.0 1.6 0.00 0.00 0.00 68 1019.7
20260507051506 12 142 0.0 1.6 0.00 0.00 0.00 68 1019.8
20260507050013 12 134 0.0 4.8 0.00 0.00 0.00 67 1019.8
20260507044505 12 126 1.6 3.2 0.00 0.00 0.00 68 1019.9
20260507043004 12 62 0.0 1.6 0.00 0.00 0.00 68 1019.9
20260507041510 12 62 0.0 1.6 0.00 0.00 0.00 68 1019.8
20260507040002 12 56 0.0 0.0 0.00 0.00 0.00 68 1019.7
20260507034501 12 55 0.0 1.6 0.00 0.00 0.00 68 1019.6
20260507033002 12 54 0.0 3.2 0.00 0.00 0.00 68 1019.5
20260507031600 12 54 0.0 4.8 0.00 0.00 0.00 68 1019.5
20260507030100 12 64 0.0 6.4 0.00 0.00 0.00 67 1019.4
20260507024559 12 69 0.0 4.8 0.00 0.00 0.00 67 1019.3
20260507023059 13 73 0.0 3.2 0.00 0.00 0.00 66 1019.2
20260507021557 13 74 0.0 4.8 0.00 0.00 0.00 66 1019.2
20260507020118 13 73 0.0 3.2 0.00 0.00 0.00 66 1019.2
20260507014600 13 92 0.0 6.4 0.00 0.00 0.00 65 1019.4
20260507013057 13 59 0.0 4.8 0.00 0.00 0.00 65 1019.2
20260507011557 13 111 0.0 1.6 0.00 0.00 0.00 63 1019.5
20260507010109 13 38 0.0 4.8 0.00 0.00 0.00 63 1019.2
20260507004554 13 138 0.0 1.6 0.00 0.00 0.00 64 1019.3
20260507003053 13 138 0.0 3.2 0.00 0.00 0.00 64 1019.2
20260507001557 13 138 0.0 4.8 0.00 0.00 0.00 63 1019.2
20260507000053 13 152 0.0 8.0 0.00 0.00 0.00 63 1019.1
20260506234558 13 186 0.0 3.2 0.00 0.00 0.00 63 1019.1
20260506233053 13 194 0.0 4.8 0.00 0.00 0.00 64 1019.3
20260506231607 13 171 0.0 9.7 0.00 0.00 0.00 64 1019.3
20260506230106 13 144 4.8 12.9 0.00 0.00 0.00 63 1019.3
20260506224551 13 205 1.6 6.4 0.00 0.00 0.00 62 1019.4
20260506223050 13 208 0.0 6.4 0.00 0.00 0.00 63 1019.4
20260506221608 13 128 3.2 8.0 0.00 0.00 0.00 61 1019.3
20260506220104 13 135 3.2 8.0 0.00 0.00 0.00 61 1019.5
20260506214549 13 125 1.6 8.0 0.00 0.00 0.00 61 1019.5
20260506213102 13 236 0.0 11.3 0.00 0.00 0.00 62 1019.5
20260506211542 13 183 3.2 6.4 0.00 0.00 0.00 61 1019.6
20260506210053 13 198 3.2 6.4 0.00 0.00 0.00 61 1019.8
20260506204542 13 189 3.2 8.0 0.00 0.00 0.00 61 1019.6
20260506203039 13 57 1.6 8.0 0.00 0.00 0.00 62 1019.7
20260506201544 13 165 1.6 6.4 0.00 0.00 0.00 62 1019.7
20260506200037 12 193 0.0 11.3 0.00 0.00 0.00 63 1019.7
20260506194533 12 240 3.2 9.7 0.00 0.00 0.00 63 1019.6
20260506193031 12 208 1.6 11.3 0.00 0.00 0.00 63 1019.5
20260506191530 12 187 1.6 14.5 0.00 0.00 0.00 63 1019.5
20260506190030 12 232 0.0 11.3 0.00 0.00 0.00 64 1019.5
20260506184527 12 251 1.6 12.9 0.00 0.00 0.00 64 1019.4
20260506183026 12 178 3.2 9.7 0.00 0.00 0.00 64 1019.4
20260506181524 11 161 1.6 14.5 0.00 0.00 0.00 65 1019.4
20260506180030 12 228 1.6 11.3 0.00 0.00 0.00 65 1019.4
20260506174525 12 257 1.6 12.9 0.00 0.00 0.00 64 1019.1
20260506173021 11 196 1.6 8.0 0.00 0.00 0.00 66 1018.8
20260506171530 12 140 3.2 11.3 0.00 0.00 0.00 66 1019.0
20260506170015 12 182 4.8 12.9 0.00 0.00 0.00 65 1019.2
20260506164513 12 80 0.0 12.9 0.00 0.00 0.00 66 1019.0
20260506163012 11 165 4.8 14.5 0.00 0.00 0.00 66 1019.1
20260506161508 11 257 3.2 16.1 0.00 0.00 0.00 66 1019.0
20260506160005 11 141 0.0 11.3 0.00 0.00 0.00 69 1018.7
20260506154600 11 222 1.6 11.3 0.00 0.00 0.00 69 1018.4
20260506153058 11 174 3.2 11.3 0.00 0.00 0.00 69 1018.3
20260506151559 11 220 1.6 11.3 0.00 0.00 0.00 69 1018.5
20260506150057 11 165 0.0 4.8 0.00 0.00 0.00 70 1018.6
20260506144603 11 124 0.0 12.9 0.00 0.00 0.00 70 1018.6
20260506143055 11 134 3.2 6.4 0.00 0.00 0.00 70 1018.2
20260506141554 11 134 1.6 8.0 0.00 0.00 0.00 70 1018.3
20260506140054 10 227 1.6 4.8 0.00 0.00 0.00 71 1018.4
20260506134552 10 331 1.6 6.4 0.00 0.00 0.00 71 1018.2
20260506133052 11 130 0.0 4.8 0.00 0.00 0.00 70 1018.2
20260506131605 11 144 1.6 6.4 0.00 0.00 0.00 69 1018.1
20260506130054 11 196 0.0 3.2 0.00 0.00 0.00 68 1018.1
20260506124550 11 142 0.0 4.8 0.00 0.00 0.00 68 1018.1
20260506123052 11 165 0.0 9.7 0.00 0.00 0.00 67 1017.7
20260506121553 11 204 0.0 9.7 0.00 0.00 0.00 68 1017.9
20260506120052 11 150 1.6 8.0 0.00 0.00 0.00 69 1017.6
20260506114552 11 44 1.6 11.3 0.00 0.00 0.00 70 1017.6
20260506113045 11 46 3.2 11.3 0.00 0.00 0.00 74 1017.6
20260506111542 10 234 1.6 8.0 0.00 0.00 0.00 78 1017.3
20260506110042 10 141 0.0 3.2 0.00 0.00 0.00 79 1017.1
20260506104544 10 132 0.0 1.6 0.00 0.00 0.00 79 1017.1
20260506103039 10 132 0.0 3.2 0.00 0.00 0.00 79 1017.0
20260506101538 10 135 0.0 3.2 0.00 0.00 0.00 78 1017.0
20260506100039 10 99 0.0 3.2 0.00 0.00 0.00 77 1016.9
20260506094535 10 158 0.0 0.0 0.00 0.00 0.00 76 1016.9
20260506093033 10 158 0.0 11.3 0.00 0.00 0.00 75 1016.7
20260506091532 10 146 0.0 1.6 0.00 0.00 0.00 73 1016.7
20260506090029 10 145 0.0 1.6 0.00 0.00 0.00 72 1016.6
20260506084527 10 144 0.0 1.6 0.00 0.00 0.00 71 1016.5
20260506083024 10 145 0.0 1.6 0.00 0.00 0.00 71 1016.3
20260506081522 10 145 0.0 1.6 0.00 0.00 0.00 69 1016.1
20260506073015 11 145 0.0 0.0 0.00 0.00 0.00 68 1015.9
20260506071616 11 145 0.0 1.6 0.00 0.00 0.00 68 1015.9
20260506061505 12 145 0.0 0.0 0.00 0.00 0.00 67 1015.5